Carrington Municipal Airport, ND

8:55 AM CDT on October 17, 2017 (GMT -0500)
Carrington Municipal Airport

Weather History for K46D - April, 2014

Change the Weather History Date:

Sunday, April 6, 2014

  Actual Average (KJMS) Record (KJMS)
Temperature  
Mean Temperature 40 °F -  
Max Temperature 55 °F 50 °F 79 °F (1991)
Min Temperature 26 °F 27 °F -1 °F (1979)
Degree Days  
Heating Degree Days 24    
Moisture  
Dew Point 36 °F    
Average Humidity 88    
Maximum Humidity 100    
Minimum Humidity 58    
Precipitation  
Precipitation 0.00 in - - ()
Sea Level Pressure  
Sea Level Pressure 29.80 in    
Wind  
Wind Speed 7 mph (WSW)    
Max Wind Speed 15 mph    
Max Gust Speed -    
Visibility 10 miles    
Events      
Averages and records for this station are not official NWS values.
T = Trace of Precipitation, MM = Missing Value Source: NWS Daily Summary

Daily Weather History Graph

Daily Weather History Graph

Search for Another Location

Airport or City:

Trip Planner

Search our weather history database for the weather conditions in past years. The results will help you decide how hot, cold, wet, or windy it might be!

Date:

Astronomy

Apr. 06, 2014 Rise Set
Actual Time 7:05 AM CDT 8:13 PM CDT
Civil Twilight 6:33 AM CDT 8:44 PM CDT
Nautical Twilight 5:56 AM CDT 9:22 PM CDT
Astronomical Twilight 5:16 AM CDT 10:03 PM CDT
Moon 11:54 AM CDT (4/6) 2:23 AM CDT (4/6)
Length of Visible Light 14h 11m
Length of Day
13h 08m
Waxing Crescent, 44% of the Moon is Illuminated
Apr 6
Waxing Crescent
Apr 7
First Quarter
Apr 15
Full
Apr 22
Last Quarter
Apr 29
New

Hourly Weather History & Observations

Time (CDT) Temp. Windchill Dew Point Humidity Pressure Visibility Wind Dir Wind Speed Gust Speed Precip Events Conditions
12:15 AM 32.0 °F 27.5 °F 32.0 °F 100% 29.87 in 10.0 mi NNW 4.6 mph - N/A   Unknown
12:35 AM 32.0 °F 27.5 °F 32.0 °F 100% 29.87 in 10.0 mi NW 4.6 mph - N/A   Unknown
12:55 AM 30.2 °F 24.3 °F 30.2 °F 100% 29.87 in 9.0 mi WNW 5.8 mph - N/A   Unknown
1:15 AM 30.2 °F 22.6 °F 30.2 °F 100% 29.86 in 9.0 mi West 8.1 mph - N/A   Unknown
1:35 AM 28.4 °F 21.2 °F 28.4 °F 100% 29.86 in 8.0 mi West 6.9 mph - N/A   Unknown
1:55 AM 28.4 °F 19.7 °F 28.4 °F 100% 29.86 in 9.0 mi West 9.2 mph - N/A   Unknown
2:15 AM 28.4 °F 23.3 °F 28.4 °F 100% 29.86 in 10.0 mi West 4.6 mph - N/A   Unknown
2:35 AM 28.4 °F 24.6 °F 28.4 °F 100% 29.85 in 10.0 mi West 3.5 mph - N/A   Unknown
2:55 AM 28.4 °F 22.2 °F 28.4 °F 100% 29.85 in 10.0 mi West 5.8 mph - N/A   Unknown
3:15 AM 28.4 °F 19.7 °F 28.4 °F 100% 29.85 in 10.0 mi West 9.2 mph - N/A   Unknown
3:35 AM 28.4 °F 23.3 °F 28.4 °F 100% 29.85 in 10.0 mi West 4.6 mph - N/A   Unknown
4:15 AM 28.4 °F - 28.4 °F 100% 29.84 in 8.0 mi Calm Calm - N/A   Unknown
4:35 AM 28.4 °F - 28.4 °F 100% 29.84 in 10.0 mi Calm Calm - N/A   Unknown
4:55 AM 28.4 °F 23.3 °F 28.4 °F 100% 29.84 in 10.0 mi West 4.6 mph - N/A   Unknown
5:15 AM 28.4 °F 23.3 °F 28.4 °F 100% 29.84 in 10.0 mi WSW 4.6 mph - N/A   Unknown
5:35 AM 28.4 °F - 28.4 °F 100% 29.84 in 10.0 mi Calm Calm - N/A   Unknown
5:55 AM 28.4 °F 23.3 °F 28.4 °F 100% 29.83 in 9.0 mi West 4.6 mph - N/A   Unknown
6:15 AM 26.6 °F 22.6 °F 26.6 °F 100% 29.83 in 8.0 mi SW 3.5 mph - N/A   Unknown
6:35 AM 26.6 °F 22.6 °F 26.6 °F 100% 29.83 in 8.0 mi SSW 3.5 mph - N/A   Unknown
6:55 AM 26.6 °F 21.2 °F 26.6 °F 100% 29.83 in 8.0 mi South 4.6 mph - N/A   Unknown
7:15 AM 28.4 °F 22.2 °F 28.4 °F 100% 29.83 in 5.0 mi South 5.8 mph - N/A   Mist
7:35 AM 28.4 °F 22.2 °F 28.4 °F 100% 29.83 in 8.0 mi South 5.8 mph - N/A   Unknown
7:55 AM 30.2 °F 23.4 °F 30.2 °F 100% 29.83 in 8.0 mi South 6.9 mph - N/A   Unknown
8:15 AM 32.0 °F 25.6 °F 32.0 °F 100% 29.82 in 9.0 mi SSE 6.9 mph - N/A   Unknown
8:35 AM 32.0 °F 25.6 °F 32.0 °F 100% 29.83 in 8.0 mi South 6.9 mph - N/A   Unknown
8:55 AM 35.6 °F 28.0 °F 35.6 °F 100% 29.82 in 10.0 mi SSE 10.4 mph - N/A   Unknown
9:15 AM 35.6 °F 28.6 °F 35.6 °F 100% 29.82 in 10.0 mi SSE 9.2 mph - N/A   Unknown
9:35 AM 37.4 °F 30.3 °F 37.4 °F 100% 29.82 in 10.0 mi SSE 10.4 mph - N/A   Unknown
9:55 AM 39.2 °F 32.5 °F 37.4 °F 93% 29.81 in 10.0 mi SSE 10.4 mph - N/A   Unknown
10:15 AM 39.2 °F 30.8 °F 35.6 °F 87% 29.81 in 10.0 mi SSE 15.0 mph - N/A   Unknown
10:35 AM 39.2 °F 32.0 °F 35.6 °F 87% 29.80 in 10.0 mi SSE 11.5 mph - N/A   Unknown
10:55 AM 41.0 °F 33.5 °F 35.6 °F 81% 29.80 in 10.0 mi South 13.8 mph - N/A   Unknown
11:15 AM 41.0 °F 34.3 °F 37.4 °F 87% 29.80 in 10.0 mi SSE 11.5 mph - N/A   Unknown
11:35 AM 44.6 °F 40.2 °F 35.6 °F 71% 29.81 in 10.0 mi South 8.1 mph - N/A   Unknown
12:15 PM 44.6 °F 38.8 °F 37.4 °F 76% 29.79 in 10.0 mi SSE 11.5 mph - N/A   Unknown
12:35 PM 46.4 °F 40.7 °F 35.6 °F 66% 29.79 in 10.0 mi SSE 12.7 mph - N/A   Unknown
12:55 PM 48.2 °F - 37.4 °F 66% 29.77 in 10.0 mi South 13.8 mph - N/A   Unknown
1:15 PM 48.2 °F - 39.2 °F 71% 29.76 in 10.0 mi South 13.8 mph - N/A   Unknown
1:35 PM 50.0 °F - 41.0 °F 71% 29.76 in 10.0 mi South 13.8 mph - N/A   Unknown
1:55 PM 50.0 °F - 42.8 °F 76% 29.75 in 10.0 mi South 13.8 mph - N/A   Unknown
2:15 PM 53.6 °F - 44.6 °F 72% 29.75 in 10.0 mi South 11.5 mph - N/A   Unknown
2:35 PM 53.6 °F - 44.6 °F 72% 29.75 in 10.0 mi SW 13.8 mph - N/A   Unknown
2:55 PM 53.6 °F - 44.6 °F 72% 29.75 in 10.0 mi SSW 10.4 mph - N/A   Unknown
3:15 PM 55.4 °F - 44.6 °F 67% 29.75 in 10.0 mi WSW 11.5 mph - N/A   Unknown
3:35 PM 55.4 °F - 44.6 °F 67% 29.74 in 10.0 mi WSW 10.4 mph - N/A   Unknown
3:55 PM 55.4 °F - 44.6 °F 67% 29.74 in 10.0 mi West 12.7 mph - N/A   Unknown
4:15 PM 55.4 °F - 42.8 °F 63% 29.74 in 10.0 mi West 11.5 mph - N/A   Unknown
4:35 PM 55.4 °F - 41.0 °F 58% 29.74 in 10.0 mi West 10.4 mph - N/A   Unknown
4:55 PM 53.6 °F - 42.8 °F 67% 29.74 in 10.0 mi West 10.4 mph - N/A   Unknown
5:15 PM 53.6 °F - 39.2 °F 58% 29.74 in 10.0 mi West 9.2 mph - N/A   Unknown
5:35 PM 53.6 °F - 41.0 °F 62% 29.74 in 10.0 mi NW 8.1 mph - N/A   Unknown
5:55 PM 53.6 °F - 41.0 °F 62% 29.74 in 10.0 mi WNW 6.9 mph - N/A   Unknown
6:15 PM 53.6 °F - 41.0 °F 62% 29.74 in 10.0 mi WNW 5.8 mph - N/A   Unknown
6:55 PM 48.2 °F - 41.0 °F 76% 29.75 in 10.0 mi North 10.4 mph - N/A   Unknown
7:15 PM 48.2 °F - 42.8 °F 82% 29.76 in 10.0 mi North 8.1 mph - N/A   Unknown
7:35 PM 48.2 °F - 42.8 °F 82% 29.77 in 10.0 mi NNW 5.8 mph - N/A   Unknown
7:55 PM 46.4 °F 43.5 °F 41.0 °F 81% 29.76 in 10.0 mi North 5.8 mph - N/A   Unknown
8:15 PM 44.6 °F 42.2 °F 39.2 °F 81% 29.77 in 10.0 mi NNW 4.6 mph - N/A   Unknown
8:35 PM 42.8 °F 40.1 °F 39.2 °F 87% 29.77 in 10.0 mi NW 4.6 mph - N/A   Unknown
8:55 PM 39.2 °F 34.2 °F 39.2 °F 100% 29.78 in 10.0 mi West 6.9 mph - N/A   Unknown
9:15 PM 39.2 °F 34.2 °F 39.2 °F 100% 29.78 in 10.0 mi WSW 6.9 mph - N/A   Unknown
9:35 PM 39.2 °F 33.6 °F 39.2 °F 100% 29.78 in 10.0 mi WNW 8.1 mph - N/A   Unknown
9:55 PM 37.4 °F 30.8 °F 37.4 °F 100% 29.79 in 10.0 mi WSW 9.2 mph - N/A   Unknown
10:15 PM 35.6 °F 28.6 °F 35.6 °F 100% 29.80 in 10.0 mi West 9.2 mph - N/A   Unknown
10:35 PM 37.4 °F 31.4 °F 37.4 °F 100% 29.80 in 10.0 mi WNW 8.1 mph - N/A   Unknown
10:55 PM 35.6 °F 29.9 °F 35.6 °F 100% 29.80 in 10.0 mi NW 6.9 mph - N/A   Unknown
11:15 PM 35.6 °F 28.0 °F 35.6 °F 100% 29.81 in 10.0 mi NW 10.4 mph - N/A   Unknown
11:35 PM 35.6 °F 28.6 °F 35.6 °F 100% 29.81 in 10.0 mi NW 9.2 mph - N/A   Unknown
11:55 PM 35.6 °F 29.2 °F 35.6 °F 100% 29.81 in 10.0 mi NW 8.1 mph - N/A   Unknown